This is the latest recevied weather packets stored in our database for station/object KC2TER. If no packets are shown the sender has not sent any weather packets the latest 10 day(s).
| Time | Temp. | Humidity | Pressure | Rain* | Wind** | Luminosity | Snow |
|---|---|---|---|---|---|---|---|
| 1778115738 | 16.67° C | 85% | 1008.1 hPa | 0 mm | - | 0 W/m² | - |
| 1778115436 | 16.67° C | 84% | 1008 hPa | 0 mm | - | 0 W/m² | - |
| 1778115131 | 16.67° C | 84% | 1008 hPa | 0 mm | - | 0 W/m² | - |
| 1778114828 | 16.67° C | 83% | 1008.1 hPa | 0 mm | - | 0 W/m² | - |
| 1778114526 | 17.22° C | 82% | 1008.1 hPa | 0 mm | - | 0 W/m² | - |
| 1778114222 | 17.78° C | 81% | 1007.8 hPa | 0 mm | - | 0 W/m² | - |
| 1778113917 | 18.33° C | 80% | 1007.9 hPa | 0 mm | - | 0 W/m² | - |
| 1778113614 | 20° C | 79% | 1008 hPa | 0 mm | - | 0 W/m² | - |
| 1778113309 | 20° C | 80% | 1008 hPa | 0 mm | - | 0 W/m² | - |
| 1778113007 | 20° C | 80% | 1007.8 hPa | 0 mm | - | 0 W/m² | - |
| 1778112704 | 20° C | 79% | 1008 hPa | 0 mm | - | 0 W/m² | - |
| 1778112400 | 20° C | 79% | 1008 hPa | 0 mm | - | 0 W/m² | - |
| 1778112096 | 20° C | 80% | 1008 hPa | 0 mm | - | 0 W/m² | - |
| 1778111794 | 20° C | 79% | 1008.1 hPa | 0 mm | - | 0 W/m² | - |
| 1778111493 | 20° C | 79% | 1008 hPa | 0 mm | - | 1 W/m² | - |
| 1778111191 | 20° C | 78% | 1007.7 hPa | 0 mm | - | 6 W/m² | - |
| 1778110888 | 20° C | 78% | 1007.5 hPa | 0 mm | - | 9 W/m² | - |
| 1778110585 | 20° C | 78% | 1007.6 hPa | 0 mm | - | 12 W/m² | - |
| 1778110282 | 20.56° C | 78% | 1007.4 hPa | 0 mm | - | 14 W/m² | - |
| 1778109978 | 20.56° C | 78% | 1007.4 hPa | 0 mm | - | 17 W/m² | - |
| 1778109674 | 20.56° C | 78% | 1007.7 hPa | 0 mm | - | 19 W/m² | - |
| 1778109371 | 20.56° C | 78% | 1007.6 hPa | 0 mm | - | 32 W/m² | - |
| 1778109069 | 20.56° C | 78% | 1007.8 hPa | 0 mm | - | 31 W/m² | - |
| 1778108765 | 20.56° C | 78% | 1007.5 hPa | 0 mm | - | 26 W/m² | - |
| 1778108463 | 20.56° C | 78% | 1007.6 hPa | 0 mm | - | 26 W/m² | - |
* Rain latest hour (hover to see other rain measurements)
** Current wind speed in m/s (hover to see current wind gust speed)